Regional Weather Roundup
Issued by NWS Northern Indiana

Home | Current Version | Previous Version | Text Only | Print | Product List | Glossary Off
Versions: 1 2 3 4 5 6 7 8 9 10 11 12 13 14 15 16 17 18 19 20 21 22 23 24 25 26 27 28 29 30 31 32 33 34 35 36 37 38 39 40 41 42 43 44 45 46 47 48 49 50

000
ASUS43 KIWX 081300
RWRIWX

KIWX WEATHER ROUNDUP
NATIONAL WEATHER SERVICE NORTHERN INDIANA
800 AM EST THU DEC 08 2016

NOTE: "FAIR" INDICATES FEW OR NO CLOUDS BELOW 12,000 FEET WITH NO
SIGNIFICANT WEATHER AND/OR OBSTRUCTIONS TO VISIBILITY.

* THESE STATIONS ARE NOT UNDER NWS QUALITY CONTROL. THEY ALSO MAY NOT
  REPORT WEATHER SUCH AS PRECIPITATION OR FOG.

INZ001>027-081400-
NORTHERN INDIANA

CITY           SKY/WX    TMP DP  RH WIND       PRES   REMARKS
GARY*          CLOUDY    23  14  68 W12G23    30.22R WCI  12
SOUTH BEND     FLURRIES  21  15  78 W15       30.15R WCI   8
ELKHART*       FLURRIES  23  16  74 W16G24    30.13R WCI  10
GOSHEN         CLOUDY    23  14  68 W17G24    30.14R WCI   9
MONTICELLO*    FLURRIES  21  11  65 W16G24    30.25R WCI   7
ANGOLA*        CLOUDY    23  16  74 W14       30.09R WCI  11
FORT WAYNE     FLURRIES  24  16  71 W21G26    30.15S WCI   9
PERU/GRISSOM   FLURRIES  21  14  75 W24       30.19S WCI   4

$$
INZ028>050-081400-
CENTRAL INDIANA

CITY           SKY/WX    TMP DP  RH WIND       PRES   REMARKS
LAFAYETTE      CLOUDY    20  13  74 W15       30.27R WCI   6
KOKOMO*        FLURRIES  21  15  78 W24G32    30.22R WCI   4
MUNCIE*        CLOUDY    24  15  68 W17G24    30.20S WCI  11
INDIANAPOLIS   PTCLDY    20  13  74 W16       30.27R WCI   6

$$
MIZ043>046-050>051-056>058-064>065-071>073-077>080-081400-
SOUTHWEST LOWER MICHIGAN

CITY           SKY/WX    TMP DP  RH WIND       PRES   REMARKS
BATTLE CREEK   CLOUDY    26  19  74 W15G22    30.05R WCI  14
BENTON HARBOR  CLOUDY    27  18  69 W22G29    30.12R WCI  13
COLDWATER*     CLOUDY    25  18  74 W14G26    30.07S WCI  13
HILLSDALE*     CLOUDY    23  18  80 SW14      30.04R WCI  11
HOLLAND        FLURRIES  27  19  72 W17G26    30.07R WCI  14
GRAND RAPIDS   CLOUDY    27  16  63 W15       30.04R WCI  15
KALAMAZOO      FLURRIES  27  17  66 W13G23    30.07R WCI  16
STURGIS*       FLURRIES  23  16  75 W15G22    30.09S WCI  10
THREE RIVERS*  FLURRIES  24  18  76 W12G17    30.10R WCI  13

$$
OHZ001>008-015>018-024>025-081400-
NORTHWEST OHIO

CITY           SKY/WX    TMP DP  RH WIND       PRES   REMARKS
DEFIANCE       CLOUDY    25  14  63 W16G24    30.13R WCI  12
FINDLAY        CLOUDY    25  15  66 W22G30    30.12S WCI  10
TOLEDO EXPRESS CLOUDY    25  18  74 W18G26    30.10R WCI  11
TOLEDO METCALF CLOUDY    26  18  71 W18       30.11R WCI  13
LIMA           CLOUDY    24  17  74 W16       30.14R WCI  11

$$
AND FOR LAKE MICHIGAN COASTAL AND OPEN LAKE BUOY OBSERVATIONS

STATION/POSITION TEMP    WIND        PRES    VSBY  WAVE
                 AIR SEA DIR/SP/G                  HT/PER
                 (F)     (DEG/KT/KT) (MB)    (MI)  (FT/S)
CALUMET HARBOR    21     250/ 11/ 18 1022.1
MICHIGAN CITY     24     250/ 25/ 31   N/A
BURNS HARBOR      24     260/ 29/ 35 1022.4R
SAINT JOSEPH      29     250/ 21     1020.7R

$$
&&




USA.gov is the U.S. government's official web portal to all federal, state and local government web resources and services.